Location: Val-d'Or
(48.1170°N, 77.7670°W)
Time: 03:51:38
(UTC-04:00)

ISS - Pass Details

Date: 17 May 2018
Orbit: 402 x 407 km, 51.6° (Epoch: 27 May)

Event Time Altitude Azimuth Distance (km) Brightness Sun altitude
Rises 04:23:08 0° 291° (WNW) 2,320 -0.2 -9.6°
Reaches altitude 10° 04:25:14 10° 294° (WNW) 1,459 -1.2 -9.4°
Maximum altitude 04:28:29 66° 18° (NNE) 443 -3.4 -9.0°
Drops below altitude 10° 04:31:44 10° 101° (ESE) 1,455 -0.5 -8.6°
Sets 04:33:49 0° 105° (ESE) 2,313 0.5 -8.3°
